sat.trackr.live / text

‹ back to catalog

STARLINK-36726

NORAD 67925 · 2026-036X

PAYLOAD ACTIVE UNKNOWN

§ Identity

Operator
Country
US
Launch date
2026-02-22
Launch site
AFETR
Launch vehicle
Mass (kg)
RCS (m²)

Purposes: comms

External: N2YO · Heavens-Above · Gunter

§ Orbital elements

Epoch: 2026-09-19T21:37:37.094592Z

Period
94.27 min
Inclination
43.0018°
Eccentricity
0.0001381
Mean motion
15.27598609 rev/d
Perigee alt
482.0 km
Apogee alt
483.9 km
Semi-major
6,861.1 km
B*
7.0347e-4
RAAN
228.5257°
Arg perigee
273.3149°
Mean anomaly
86.7544°
Rev number
3,342

§ Raw data

STARLINK-367261 67925U 26036X   26262.90112378  .00019157  00000+0  70347-3 0  99912 67925  43.0018 228.5257 0001381 273.3149  86.7544 15.27598609 33428

JSON: /api/v1/satellites/67925 · /tle

For live sub-satellite position, see the globe view (requires WebGL).

§ Visibility from observer

Set your observer location to see the next 7 days of passes ≥ 10°. The values pass through the URL so the page stays shareable.

No JS? Fill the form by hand. The geolocation button needs JavaScript.